Location: Bay Shore Mobile Home Park
(38.5762°N, 75.0841°W)
Time: 05:25:03
(UTC+00:00)

Hubble Space Telescope - Pass Details

Date: 23 January 2026
Orbit: 478 x 480 km, 28.5° (Epoch: 8 February)

Event Time Altitude Azimuth Distance (km) Brightness Sun altitude
Rises 00:06:10 0° 217° (SW) 2,511 4.9 -22.4°
Reaches altitude 10° 00:09:55 10° 179° (S) 1,636 3.3 -23.1°
Enters shadow 00:10:04 10° 177° (S) 1,623 3.2 -23.1°
